TimePST,TemperatureF,Dew PointF,Humidity,Sea Level PressureIn,VisibilityMPH,Wind Direction,Wind SpeedMPH,Gust SpeedMPH,PrecipitationIn,Events,Conditions,WindDirDegrees,DateUTC
12:52 AM,42.1,39.9,92,30.01,-9999.0,NE,4.6,-,0.05,,Unknown,50,2012-11-25 08:52:00
1:52 AM,43.0,41.0,93,30.01,-9999.0,East,3.5,-,0.03,,Unknown,90,2012-11-25 09:52:00
2:52 AM,43.0,41.0,93,30.02,-9999.0,Calm,Calm,-,0.02,,Unknown,0,2012-11-25 10:52:00
3:52 AM,43.0,41.0,93,30.03,-9999.0,NNE,4.6,-,N/A,,Unknown,30,2012-11-25 11:52:00
4:52 AM,42.1,39.9,92,30.05,-9999.0,NE,5.8,-,N/A,,Unknown,40,2012-11-25 12:52:00
5:52 AM,41.0,37.9,89,30.07,-9999.0,North,8.1,-,N/A,,Unknown,10,2012-11-25 13:52:00
6:52 AM,39.9,37.0,89,30.09,-9999.0,NNE,9.2,-,N/A,,Unknown,30,2012-11-25 14:52:00
7:52 AM,39.9,37.0,89,30.11,-9999.0,NNE,9.2,-,N/A,,Unknown,30,2012-11-25 15:52:00
8:52 AM,39.9,37.0,89,30.14,-9999.0,NNE,9.2,-,N/A,,Unknown,20,2012-11-25 16:52:00
9:52 AM,43.0,35.1,74,30.14,-9999.0,NNE,9.2,-,N/A,,Unknown,20,2012-11-25 17:52:00
10:52 AM,43.0,35.1,74,30.13,-9999.0,ENE,11.5,-,N/A,,Unknown,60,2012-11-25 18:52:00
11:52 AM,44.1,34.0,68,30.12,-9999.0,NE,8.1,-,N/A,,Unknown,40,2012-11-25 19:52:00
12:52 PM,45.0,34.0,65,30.10,-9999.0,NE,9.2,-,N/A,,Unknown,40,2012-11-25 20:52:00
1:52 PM,46.0,32.0,58,30.10,-9999.0,NNE,9.2,-,N/A,,Unknown,30,2012-11-25 21:52:00
2:52 PM,46.0,32.0,58,30.10,-9999.0,NNE,10.4,-,N/A,,Unknown,20,2012-11-25 22:52:00
3:52 PM,43.0,30.9,62,30.12,-9999.0,North,11.5,-,N/A,,Unknown,10,2012-11-25 23:52:00
4:52 PM,37.0,28.9,73,30.15,-9999.0,NNE,8.1,-,N/A,,Unknown,20,2012-11-26 00:52:00
5:52 PM,34.0,28.0,79,30.17,-9999.0,NNE,6.9,-,N/A,,Unknown,20,2012-11-26 01:52:00
6:52 PM,32.0,27.0,82,30.20,-9999.0,NNE,5.8,-,N/A,,Unknown,20,2012-11-26 02:52:00
7:52 PM,32.0,28.0,85,30.22,-9999.0,NNE,8.1,-,N/A,,Unknown,20,2012-11-26 03:52:00
8:52 PM,33.1,28.0,82,30.22,-9999.0,NNE,3.5,-,N/A,,Unknown,20,2012-11-26 04:52:00
9:52 PM,32.0,28.0,85,30.22,-9999.0,NNW,3.5,-,N/A,,Unknown,340,2012-11-26 05:52:00
10:52 PM,32.0,28.0,85,30.22,-9999.0,NNE,5.8,-,N/A,,Unknown,20,2012-11-26 06:52:00
11:52 PM,32.0,27.0,82,30.22,-9999.0,North,6.9,-,N/A,,Unknown,10,2012-11-26 07:52:00